Weather Roundup
Issued by NWS Springfield, MO

Home | Current Version | Previous Version | Text Only | Print | Product List | Glossary On
Versions: 1 2 3 4 5 6 7 8 9 10 11 12 13 14 15 16 17 18 19 20 21 22 23 24 25 26 27 28 29 30 31 32 33 34 35 36 37 38 39 40 41 42 43 44 45 46 47 48 49 50
000
NZUS99 KSGF 021907
HRRSGF

HOURLY WEATHER
NATIONAL WEATHER SERVICE SPRINGFIELD MO
100 PM CST MON MAR 02 2015

......SGF CWA......

CITY           SKY/WX    TMP DP  RH WIND       PRES   REMARKS
SPRINGFIELD    CLOUDY    38  17  42 SE14      30.34F WCI  30
JOPLIN         CLOUDY    36  19  50 E14       30.33F WCI  27
WEST PLAINS    PTSUNNY   37  19  48 E9        30.39F WCI  30
ROLLA          MOSUNNY   33  17  51 NE9       30.40F WCI  25
OSAGE BEACH    PTSUNNY   36  16  44 E9        30.41F WCI  29
BRANSON        CLOUDY    36  23  60 E10       30.37F WCI  28

......SURROUNDING SGF CWA......

CITY           SKY/WX    TMP DP  RH WIND       PRES   REMARKS
CHANUTE        CLOUDY    37  20  50 E13       30.34F WCI  29
PARSONS        CLOUDY    39  22  50 SE9       30.35F WCI  33
COFFEYVILLE    CLOUDY    37  23  56 SE12      30.35F WCI  29
EMPORIA        PTSUNNY   35  19  52 SE17G26   30.35F WCI  25
SILOAM SPRINGS CLOUDY    36  25  64 SE7       30.34F WCI  30
HARRISON AR    CLOUDY    34  24  67 E10       30.36F WCI  26
NEAR YELLVILLE CLOUDY    37  21  52 E8        30.40F WCI  31

......KANSAS AND MISSOURI......

CITY           SKY/WX    TMP DP  RH WIND       PRES   REMARKS
KANSAS CTY INT CLOUDY    39  21  48 SE16      30.37F WCI  30
DOWNTOWN KC    MOSUNNY   40  18  41 SE10      30.38F WCI  33
COLUMBIA       PTSUNNY   35  19  52 E8        30.44F WCI  29
SEDALIA        PTSUNNY   35  18  49 E13       30.41F WCI  26
ST JOSEPH      MOSUNNY   41  22  46 SE14      30.38F
ST LOUIS       PTSUNNY   34  17  50 SE7       30.49F WCI  28
SPIRIT OF STL  SUNNY     34  16  47 SE7       30.47F WCI  28
KIRKSVILLE     PTSUNNY   31  20  63 SE6       30.44F WCI  25
WICHITA        CLOUDY    34  18  52 E13       30.29F WCI  25
TOPEKA         MOSUNNY   39  20  46 SE14      30.36F WCI  31
OLATHE         PTSUNNY   35  17  47 SE15G23   30.36F WCI  25

......TENNESSEE......

CITY           SKY/WX    TMP DP  RH WIND       PRES   REMARKS
MEMPHIS        CLOUDY    42  30  62 NE6       30.39F
NASHVILLE      MOSUNNY   45  28  51 E5        30.41F

......ARKANSAS.......

CITY           SKY/WX    TMP DP  RH WIND       PRES   REMARKS
FAYETTEVILLE   CLOUDY    36  29  75 SE5       30.33F WCI  32
FT SMITH       CLOUDY    38  31  76 SE8       30.38F WCI  32
LITTLE ROCK    CLOUDY    36  28  73 NE9       30.43F WCI  29

......OKLAHOMA.......

CITY           SKY/WX    TMP DP  RH WIND       PRES   REMARKS
TULSA          CLOUDY    35  30  82 SE7       30.34F WCI  29
PONCA CITY     CLOUDY    36  25  64 SE10      30.32F WCI  28
MCALESTER      CLOUDY    38  35  89 VRB5      30.32F FOG     WCI  34
OKLAHOMA CITY  CLOUDY    34  26  72 SE6       30.30F WCI  29

......IOWA............

CITY           SKY/WX    TMP DP  RH WIND       PRES   REMARKS
DES MOINES     CLOUDY    30  14  51 SE7       30.42F WCI  23
QUAD CITIES    SUNNY     29  15  56 E6        30.47F WCI  23

......ILLINOIS........

CITY           SKY/WX    TMP DP  RH WIND       PRES   REMARKS
QUINCY         PTSUNNY   31  16  54 SE3       30.46F
CHICAGO        PTSUNNY   30  12  47 VRB6      30.48F WCI  24



USA.gov is the U.S. government's official web portal to all federal, state and local government web resources and services.